CDT,Max TemperatureF,Mean TemperatureF,Min TemperatureF,Max Dew PointF,MeanDew PointF,Min DewpointF,Max Humidity, Mean Humidity, Min Humidity, Max Sea Level PressureIn, Mean Sea Level PressureIn, Min Sea Level PressureIn, Max VisibilityMiles, Mean VisibilityMiles, Min VisibilityMiles, Max Wind SpeedMPH, Mean Wind SpeedMPH, Max Gust SpeedMPH,PrecipitationIn, CloudCover, Events, WindDirDegrees
2013-10-1,80,68,55,55,52,48,94,60,36,29.96,29.89,29.78,10,10,9,15,9,22,0.00,0,,25
2013-10-2,84,72,59,66,61,52,100,74,48,29.97,29.91,29.83,10,10,6,21,8,24,0.01,1,,149
2013-10-3,80,70,60,68,63,59,100,82,58,29.87,29.78,29.72,10,9,2,18,8,18,0.43,4,Rain,198
2013-10-4,80,68,53,73,63,43,100,87,59,29.87,29.76,29.64,10,9,1,23,13,33,2.27,6,Rain,118
2013-10-5,53,48,42,41,35,32,81,63,47,29.93,29.87,29.79,10,10,10,25,15,32,0.00,5,,248
2013-10-6,48,44,41,48,44,37,100,97,81,29.98,29.85,29.75,10,7,1,18,11,26,0.13,7,Rain,297
2013-10-7,73,56,39,45,41,39,100,62,29,30.08,30.02,29.98,10,10,10,16,8,24,0.00,0,,238
2013-10-8,77,64,50,48,44,41,76,52,33,30.00,29.96,29.90,10,10,10,24,13,32,0.00,0,,180
2013-10-9,77,64,51,52,50,48,94,69,41,30.02,29.99,29.94,10,10,10,20,12,28,0.00,0,,156
2013-10-10,78,64,51,55,52,48,88,66,42,30.00,29.93,29.82,10,10,9,25,13,30,0.00,0,,152
2013-10-11,78,66,53,61,51,39,88,64,24,29.89,29.74,29.64,10,10,10,25,16,34,0.00,2,,185
2013-10-12,66,56,46,43,36,28,76,51,24,30.27,30.11,29.90,10,10,10,15,7,18,0.00,0,,305
2013-10-13,68,54,41,37,34,30,76,49,28,30.41,30.34,30.28,10,10,10,12,6,16,0.00,0,,96
2013-10-14,62,55,48,59,44,32,100,73,44,30.29,30.02,29.72,10,8,1,31,14,43,1.28,7,Rain,139
2013-10-15,59,52,44,57,42,37,94,80,71,30.04,29.92,29.78,10,10,5,21,16,32,0.00,8,Rain,282
2013-10-16,55,48,42,41,37,30,87,68,38,30.06,30.01,29.96,10,10,3,15,9,24,0.00,5,,293
2013-10-17,60,50,39,41,37,32,87,68,42,30.03,29.92,29.87,10,10,10,17,8,28,0.00,2,,264
2013-10-18,50,42,33,39,33,28,100,74,43,30.12,30.05,29.99,10,10,9,12,7,17,0.00,1,,276
2013-10-19,62,48,33,37,33,30,93,68,34,29.98,29.88,29.80,10,10,8,20,8,28,0.00,2,,228
2013-10-20,64,52,41,43,39,36,81,66,39,30.00,29.80,29.70,10,10,10,16,7,28,0.00,4,,278
2013-10-21,50,41,32,37,33,30,100,74,53,30.10,30.02,29.93,10,10,10,14,8,20,0.00,4,,282
2013-10-22,48,42,37,43,37,34,100,85,76,30.10,29.97,29.84,10,10,7,16,7,25,0.00,8,Rain,335
2013-10-23,42,37,32,39,36,32,100,94,81,30.18,30.10,30.04,10,9,3,9,4,14,0.00,5,Rain,275
2013-10-24,48,39,30,36,29,25,100,70,40,30.39,30.32,30.19,10,10,7,12,7,17,0.00,2,,302
2013-10-25,57,44,30,34,29,23,80,56,38,30.40,30.25,30.05,10,10,10,21,10,30,0.00,1,,211
2013-10-26,50,42,33,37,32,28,81,64,43,30.20,30.12,30.00,10,10,10,15,8,21,0.00,0,,311
2013-10-27,68,50,32,37,32,27,87,61,30,30.13,29.96,29.83,10,10,10,17,9,24,0.00,0,,189
2013-10-28,55,47,39,41,37,34,87,72,51,30.19,30.11,29.95,10,10,7,21,11,25,0.00,1,Rain,58
2013-10-29,53,47,41,54,48,39,100,98,81,30.20,30.03,29.95,10,4,0,16,10,21,0.01,8,Fog-Rain,92
2013-10-30,60,51,42,61,52,43,100,100,94,29.95,29.84,29.75,10,3,0,13,6,21,0.25,8,Fog-Rain,2
2013-10-31,55,46,37,45,40,37,100,87,58,29.75,29.60,29.49,10,7,2,14,6,20,0.00,3,,278